DateTimeUTC,F1_A11,F1_S11,BsB_S11,BsG_S11,BsR_S11,BbsB_S11,BbsG_S11,BbsR_S11,BaB_A11,BaG_A11,BaR_A11,Tu_S11,T_S11,Uu_S11,U_S11,P_S11,T1_A11
2021-10-17T02:00:00Z,00000200,21000000,,,,,,,-000.12,-000.08,-000.40,16.1,23.3,,00.0,0665.7,30.8
2021-10-17T02:01:00Z,00000200,21000000,,,,,,,-000.18,-000.14,-000.40,16.1,23.3,,00.0,0665.7,30.8
2021-10-17T02:02:00Z,00000200,21000000,,,,,,,0000.33,-000.12,0000.30,16.1,23.4,,00.0,0665.6,30.8
2021-10-17T02:03:00Z,00000200,61000000,,,,,,,0073.26,0067.90,0053.72,16.1,23.4,,00.0,0665.6,30.8
2021-10-17T02:04:00Z,00000200,41000000,0010.37,0007.22,0004.65,0002.03,0001.84,0000.90,0093.34,0086.78,0069.37,16.1,23.1,,00.0,0666.5,30.8
2021-10-17T02:05:00Z,00000200,01000000,0010.82,0008.34,0005.09,0002.69,0002.45,0001.20,0117.11,0108.02,0086.17,16.1,22.9,,00.0,0666.5,30.8
2021-10-17T02:06:00Z,00000200,01000000,0003.51,0002.74,0001.88,0000.55,0001.03,0000.38,0027.78,0026.39,0021.18,16.0,22.9,,00.0,0666.5,30.8
2021-10-17T02:07:00Z,00000200,01000000,0002.10,0001.50,0001.00,-000.01,0000.66,-000.17,0001.18,0000.70,0000.55,16.0,22.9,,00.0,0666.5,30.8
2021-10-17T02:08:00Z,00000200,01000000,0002.53,0001.55,0001.20,0000.68,0000.53,0000.24,0000.70,0000.63,0000.59,16.0,22.8,,00.0,0666.6,30.8
2021-10-17T02:09:00Z,00000200,01000000,0001.97,0001.48,0001.20,0000.03,0000.64,-000.08,0000.38,0000.40,0000.61,16.0,22.9,,00.0,0666.6,30.8
2021-10-17T02:10:00Z,00000200,01000000,0002.01,0001.48,0001.43,0000.45,0000.06,0000.12,0000.68,0000.67,0000.36,16.0,22.9,,00.0,0666.6,30.8
2021-10-17T02:11:00Z,00000200,01000000,0002.57,0001.37,0001.07,0000.44,0000.03,0000.41,0000.41,0000.42,-000.09,16.0,22.8,,00.0,0666.6,30.8
2021-10-17T02:12:00Z,00000200,01000000,0002.33,0001.51,0000.87,0000.78,0000.50,-000.28,0001.13,0000.73,0000.76,16.1,22.8,,00.0,0666.7,30.8
2021-10-17T02:13:00Z,00000200,01000000,0004.79,0003.50,0002.23,0001.08,0001.03,0000.40,0027.16,0025.52,0020.36,16.1,22.8,,00.0,0666.6,30.8
2021-10-17T02:14:00Z,00000200,01000000,0002.93,0002.15,0001.57,0001.13,0000.56,0000.12,0019.11,0017.55,0014.32,16.1,22.8,,00.0,0666.6,30.8
2021-10-17T02:15:00Z,00000200,01000000,0002.43,0001.61,0001.01,0001.25,0000.35,0000.20,0000.97,0001.03,0000.59,16.1,22.8,,00.0,0666.7,30.8
2021-10-17T02:16:00Z,00000200,01000000,0002.38,0001.32,0000.85,0000.63,0000.26,0000.18,0000.87,0000.78,0000.30,16.1,22.9,,00.0,0666.7,30.8
2021-10-17T02:17:00Z,00000200,01000000,0001.84,0001.81,0001.24,0000.50,0000.40,0000.04,0004.44,0003.96,0003.94,16.1,22.8,,00.0,0666.7,30.8
2021-10-17T02:18:00Z,00000200,01000000,0002.70,0001.63,0000.82,0000.18,0000.48,0000.57,0003.04,0003.13,0002.13,16.2,22.8,,00.0,0666.7,30.8
2021-10-17T02:19:00Z,00000200,01000000,0001.80,0001.31,0001.14,0000.69,0000.56,0000.11,0000.53,0000.41,0000.45,16.1,22.8,,00.0,0666.7,30.8
2021-10-17T02:20:00Z,00000200,01000000,0002.43,0001.08,0000.87,0000.50,0000.16,0000.07,0000.46,0000.13,-000.05,16.2,22.8,,00.0,0666.7,30.8
2021-10-17T02:21:00Z,00000200,01000000,0001.87,0001.70,0000.70,0000.39,0000.30,0000.03,0000.56,0000.67,0000.42,16.2,22.8,,00.0,0666.7,30.8
2021-10-17T02:22:00Z,00000200,01000000,0001.93,0001.34,0000.77,0000.40,0000.22,-000.00,0000.30,0000.51,0000.27,16.2,22.8,,00.0,0666.8,30.8
2021-10-17T02:23:00Z,00000200,01000000,0002.04,0001.72,0000.77,0000.40,0000.37,0000.02,0000.24,-000.28,0000.08,16.2,22.8,,00.0,0666.8,30.8
2021-10-17T02:24:00Z,00000200,01000000,0001.51,0001.32,0001.20,0000.31,0000.28,0000.01,0000.37,0000.45,0000.24,16.2,22.9,,00.0,0666.7,30.8
2021-10-17T02:25:00Z,00000200,01000000,0002.43,0001.33,0000.86,0001.11,0000.34,-000.12,0000.27,0000.41,0000.21,16.2,22.9,,00.0,0666.8,30.8
2021-10-17T02:26:00Z,00000200,01000000,0001.16,0001.39,0000.59,0000.18,0000.51,0000.07,0000.35,0000.08,0000.31,16.2,22.9,,00.0,0666.8,30.8
2021-10-17T02:27:00Z,00000200,01000000,0002.11,0001.18,0000.70,0000.53,0000.52,0000.16,0000.57,0000.48,0000.33,16.2,22.8,,00.0,0666.8,30.8
2021-10-17T02:28:00Z,00000200,01000000,0002.02,0001.29,0000.86,0001.01,0000.45,0000.08,0000.03,0000.63,0000.28,16.3,22.8,,00.0,0666.8,30.8
2021-10-17T02:29:00Z,00000200,01000000,0001.91,0001.58,0001.00,0000.50,0000.33,0000.33,0000.53,0000.45,0000.66,16.3,22.8,,00.0,0666.8,30.8
2021-10-17T02:30:00Z,00000200,01000000,0001.45,0001.04,0001.01,0000.55,0000.44,-000.20,0000.54,-000.04,-000.36,16.3,22.9,,00.0,0666.8,30.8
2021-10-17T02:31:00Z,00000200,01000000,0002.60,0001.52,0001.17,0000.77,0000.40,0000.27,0000.22,0000.45,0000.31,16.3,22.8,,00.0,0666.8,30.8
2021-10-17T02:32:00Z,00000200,01000000,0002.35,0001.38,0000.79,0000.00,0000.69,0000.08,0000.30,0000.38,0000.65,16.3,22.9,,00.0,0666.9,30.8
2021-10-17T02:33:00Z,00000200,01000000,0002.11,0001.41,0000.71,0000.17,0000.26,0000.03,0000.21,0000.21,0000.07,16.3,22.8,,00.0,0666.9,30.8
2021-10-17T02:34:00Z,00000200,01000000,0002.12,0001.48,0000.78,0000.20,0000.62,0000.36,0000.66,0000.65,0000.15,16.3,22.9,,00.0,0666.9,30.8
2021-10-17T02:35:00Z,00000200,01000000,0002.11,0001.26,0000.79,0000.06,0000.24,-000.04,0000.36,0000.03,0000.38,16.3,22.9,,00.0,0666.9,30.8
2021-10-17T02:36:00Z,00000200,01000000,0001.78,0000.85,0000.89,0000.37,0000.43,0000.25,0000.27,0000.45,-000.19,16.3,22.8,,00.0,0666.9,30.8
2021-10-17T02:37:00Z,00000200,01000000,0001.41,0001.30,0000.90,0000.89,0000.74,-000.25,0000.50,0000.29,0000.66,16.3,22.9,,00.0,0666.9,30.8
2021-10-17T02:38:00Z,00000200,01000000,0001.40,0001.36,0000.70,-000.25,0000.24,-000.03,0000.59,0000.41,0000.51,16.3,22.9,,00.0,0666.9,30.8
2021-10-17T02:39:00Z,00000200,01000000,0001.43,0001.11,0001.12,0000.24,0000.35,-000.03,0000.58,0000.66,0000.28,16.3,22.9,,00.0,0666.9,30.8
2021-10-17T02:40:00Z,00000200,01000000,0001.18,0001.14,0000.42,0000.58,0000.22,-000.45,0000.28,0000.21,0000.35,16.3,22.9,,00.0,0666.9,30.8
2021-10-17T02:41:00Z,00000200,01000000,0001.45,0001.23,0000.65,0000.19,0000.21,0000.10,0000.37,0000.41,0000.29,16.3,22.9,,00.0,0666.9,30.8
2021-10-17T02:42:00Z,00000200,01000000,0001.84,0001.36,0000.87,0001.04,0000.54,0000.29,0000.42,0000.60,0000.01,16.3,22.9,,00.0,0666.9,30.8
2021-10-17T02:43:00Z,00000200,01000000,0001.62,0001.46,0001.04,0000.49,0000.30,0000.36,0000.26,0000.39,0000.44,16.3,22.9,,00.0,0666.9,30.8
2021-10-17T02:44:00Z,00000200,01000000,0001.89,0001.08,0000.58,0000.23,0000.47,0000.11,0000.23,0000.07,0000.32,16.3,22.9,,00.0,0666.9,30.8
2021-10-17T02:45:00Z,00000200,01000000,0001.63,0001.36,0000.50,0000.48,0000.23,-000.10,0000.79,0000.42,0000.36,16.3,22.9,,00.0,0666.8,30.8
2021-10-17T02:46:00Z,00000200,01000000,0002.40,0001.48,0000.66,0000.12,0000.42,-000.17,0000.52,0000.46,0000.13,16.3,22.9,,00.0,0666.8,30.8
2021-10-17T02:47:00Z,00000200,01000000,0002.11,0000.89,0000.75,0000.78,0000.47,0000.15,0000.27,0000.26,0000.74,16.3,22.9,,00.0,0666.8,30.8
2021-10-17T02:48:00Z,00000200,01000000,0001.90,0000.70,0000.69,0001.44,0000.23,-000.14,0000.22,0000.28,-000.21,16.3,22.9,,00.0,0666.8,30.8
2021-10-17T02:49:00Z,00000200,01000000,0001.18,0001.16,0000.44,0000.41,0000.14,0000.01,0000.66,0000.51,0000.35,16.3,22.9,,00.0,0666.8,30.8
2021-10-17T02:50:00Z,00000200,01000000,0004.35,0003.37,0002.20,0001.09,0000.97,0000.56,0031.79,0029.32,0023.28,16.3,22.9,,00.0,0666.8,30.8
2021-10-17T02:51:00Z,00000200,01000000,0015.50,0010.50,0006.75,0003.38,0003.08,0001.93,0152.00,0140.29,0112.53,16.3,22.9,,00.0,0666.8,30.8
2021-10-17T02:52:00Z,00000200,01000000,0008.97,0006.95,0004.74,0002.42,0002.19,0001.15,0101.64,0094.66,0075.94,16.3,22.9,,00.0,0666.8,30.8
2021-10-17T02:53:00Z,00000200,01000000,0004.12,0001.98,0001.70,0001.22,0000.64,-000.15,0022.02,0020.69,0016.90,16.3,22.9,,00.0,0666.8,30.8
2021-10-17T02:54:00Z,00000200,01000000,0003.02,0001.30,0000.98,0000.24,0000.33,0000.13,0007.47,0007.00,0005.54,16.3,22.9,,00.0,0666.8,30.8
2021-10-17T02:55:00Z,00000200,01000000,0002.03,0001.23,0000.72,-000.03,0000.19,0000.07,0005.62,0005.91,0004.19,16.3,22.9,,00.0,0666.8,30.8
2021-10-17T02:56:00Z,00000200,01000000,0002.23,0001.88,0001.23,0001.19,0000.14,0000.40,0013.82,0012.06,0010.27,16.3,22.9,,00.0,0666.8,30.8
2021-10-17T02:57:00Z,00000200,41000000,,,,,,,0007.54,0007.27,0005.58,16.4,22.9,,00.0,0666.9,30.8
2021-10-17T02:58:00Z,00000200,61000000,,,,,,,0000.56,0000.32,-000.18,16.0,23.0,,00.0,0665.8,30.8
2021-10-17T02:59:00Z,00000200,21000000,,,,,,,-000.25,0000.11,0000.65,16.0,23.1,,00.0,0665.8,30.8
